| time (UTC) | temp F | wind direction | speed MPH | gust MPH | rain 1hr in | rain 24hr in | rain mn in | humidity % | barometer mb |
| 20260508004038 | 53 | 97 | 2.0 | 7.0 | 0.00 | 0.00 | 0.00 | 76 | 1015.4 |
| 20260508003537 | 53 | 121 | 3.0 | 7.0 | 0.00 | 0.00 | 0.00 | 76 | 1015.4 |
| 20260508003045 | 53 | 141 | 3.0 | 6.0 | 0.00 | 0.00 | 0.00 | 76 | 1015.5 |
| 20260508002538 | 53 | 108 | 1.0 | 7.0 | 0.00 | 0.00 | 0.00 | 75 | 1015.4 |
| 20260508002037 | 54 | 101 | 3.0 | 7.0 | 0.00 | 0.00 | 0.00 | 75 | 1015.4 |
| 20260508001548 | 54 | 112 | 3.0 | 6.0 | 0.00 | 0.00 | 0.00 | 75 | 1015.4 |
| 20260508001037 | 54 | 141 | 2.0 | 7.0 | 0.00 | 0.00 | 0.00 | 75 | 1015.5 |
| 20260508000538 | 54 | 102 | 3.0 | 7.0 | 0.00 | 0.00 | 0.00 | 75 | 1015.4 |
| 20260508000046 | 54 | 112 | 2.0 | 7.0 | 0.00 | 0.00 | 0.00 | 74 | 1015.4 |
| 20260507235537 | 54 | 107 | 3.0 | 8.0 | 0.00 | 0.00 | 0.00 | 74 | 1015.4 |
| 20260507235037 | 54 | 159 | 2.0 | 8.0 | 0.00 | 0.00 | 0.00 | 74 | 1015.4 |
| 20260507234547 | 54 | 113 | 4.0 | 8.0 | 0.00 | 0.00 | 0.00 | 74 | 1015.4 |
| 20260507234037 | 54 | 144 | 3.0 | 8.0 | 0.00 | 0.00 | 0.00 | 73 | 1015.5 |
| 20260507233537 | 54 | 161 | 3.0 | 9.0 | 0.00 | 0.00 | 0.00 | 73 | 1015.5 |
| 20260507233048 | 54 | 117 | 2.0 | 9.0 | 0.00 | 0.00 | 0.00 | 73 | 1015.5 |
| 20260507232540 | 54 | 157 | 4.0 | 9.0 | 0.00 | 0.00 | 0.00 | 73 | 1015.5 |
| 20260507232037 | 54 | 95 | 3.0 | 9.0 | 0.00 | 0.00 | 0.00 | 72 | 1015.5 |
| 20260507231547 | 54 | 139 | 3.0 | 9.0 | 0.00 | 0.00 | 0.00 | 72 | 1015.6 |
| 20260507231038 | 54 | 100 | 4.0 | 9.0 | 0.00 | 0.00 | 0.00 | 73 | 1015.6 |
| 20260507230540 | 54 | 142 | 2.0 | 8.0 | 0.00 | 0.00 | 0.00 | 73 | 1015.6 |
| 20260507230042 | 54 | 121 | 3.0 | 7.0 | 0.00 | 0.00 | 0.00 | 73 | 1015.6 |
| 20260507225538 | 54 | 108 | 2.0 | 8.0 | 0.00 | 0.00 | 0.00 | 73 | 1015.5 |
| 20260507225038 | 54 | 72 | 3.0 | 10.0 | 0.00 | 0.00 | 0.00 | 73 | 1015.6 |
| 20260507224553 | 54 | 126 | 4.0 | 10.0 | 0.00 | 0.00 | 0.00 | 73 | 1015.6 |
| 20260507224037 | 54 | 122 | 3.0 | 10.0 | 0.00 | 0.00 | 0.00 | 73 | 1015.7 |
| 20260507223540 | 54 | 130 | 4.0 | 8.0 | 0.00 | 0.00 | 0.00 | 73 | 1015.7 |
| 20260507223053 | 54 | 96 | 3.0 | 10.0 | 0.00 | 0.00 | 0.00 | 73 | 1015.6 |
| 20260507222541 | 54 | 96 | 5.0 | 10.0 | 0.00 | 0.00 | 0.00 | 73 | 1015.6 |
| 20260507222037 | 54 | 76 | 3.0 | 9.0 | 0.00 | 0.00 | 0.00 | 73 | 1015.7 |
| 20260507221548 | 54 | 98 | 5.0 | 9.0 | 0.00 | 0.00 | 0.00 | 73 | 1015.7 |
| 20260507221038 | 54 | 79 | 3.0 | 11.0 | 0.00 | 0.00 | 0.00 | 72 | 1015.8 |
| 20260507220538 | 54 | 111 | 3.0 | 11.0 | 0.00 | 0.00 | 0.00 | 72 | 1015.8 |
| 20260507220048 | 54 | 146 | 5.0 | 12.0 | 0.00 | 0.00 | 0.00 | 72 | 1015.9 |
| 20260507215540 | 55 | 154 | 3.0 | 12.0 | 0.00 | 0.00 | 0.00 | 71 | 1015.9 |
| 20260507215038 | 55 | 106 | 3.0 | 9.0 | 0.00 | 0.00 | 0.00 | 71 | 1015.9 |
| 20260507214542 | 55 | 144 | 3.0 | 9.0 | 0.00 | 0.00 | 0.00 | 71 | 1015.9 |
| 20260507214039 | 55 | 118 | 5.0 | 10.0 | 0.00 | 0.00 | 0.00 | 71 | 1015.8 |
| 20260507213538 | 55 | 110 | 4.0 | 10.0 | 0.00 | 0.00 | 0.00 | 71 | 1015.8 |
| 20260507213045 | 55 | 98 | 4.0 | 8.0 | 0.00 | 0.00 | 0.00 | 71 | 1015.9 |
| 20260507212539 | 55 | 139 | 4.0 | 12.0 | 0.00 | 0.00 | 0.00 | 71 | 1015.9 |
| 20260507212037 | 55 | 127 | 3.0 | 12.0 | 0.00 | 0.00 | 0.00 | 71 | 1015.9 |
| 20260507211548 | 55 | 115 | 5.0 | 14.0 | 0.00 | 0.00 | 0.00 | 70 | 1015.8 |
| 20260507211037 | 54 | 113 | 7.0 | 14.0 | 0.00 | 0.00 | 0.00 | 71 | 1015.8 |
| 20260507210537 | 55 | 69 | 3.0 | 9.0 | 0.00 | 0.00 | 0.00 | 74 | 1015.8 |
| 20260507210048 | 55 | 137 | 2.0 | 6.0 | 0.00 | 0.00 | 0.00 | 76 | 1015.8 |
| 20260507205537 | 55 | 124 | 0.0 | 3.0 | 0.00 | 0.00 | 0.00 | 77 | 1015.8 |
| 20260507205040 | 55 | 124 | 0.0 | 3.0 | 0.00 | 0.00 | 0.00 | 77 | 1015.8 |
| 20260507204555 | 55 | 148 | 1.0 | 3.0 | 0.00 | 0.00 | 0.00 | 77 | 1015.8 |
| 20260507204037 | 55 | 0 | 0.0 | 4.0 | 0.00 | 0.00 | 0.00 | 77 | 1015.8 |
| 20260507203537 | 55 | 0 | 0.0 | 6.0 | 0.00 | 0.00 | 0.00 | 77 | 1015.7 |
| 20260507203045 | 55 | 135 | 1.0 | 6.0 | 0.00 | 0.00 | 0.00 | 77 | 1015.6 |
| 20260507202538 | 55 | 180 | 1.0 | 8.0 | 0.00 | 0.00 | 0.00 | 77 | 1015.5 |
| 20260507202037 | 55 | 157 | 1.0 | 9.0 | 0.00 | 0.00 | 0.00 | 77 | 1015.6 |
| 20260507201548 | 55 | 144 | 2.0 | 9.0 | 0.00 | 0.00 | 0.00 | 76 | 1015.5 |
| 20260507201039 | 55 | 113 | 1.0 | 9.0 | 0.00 | 0.00 | 0.00 | 76 | 1015.5 |
| 20260507200542 | 55 | 101 | 2.0 | 8.0 | 0.00 | 0.00 | 0.00 | 75 | 1015.4 |
| 20260507200053 | 55 | 128 | 2.0 | 8.0 | 0.00 | 0.00 | 0.00 | 74 | 1015.4 |
| 20260507195537 | 55 | 162 | 4.0 | 8.0 | 0.00 | 0.00 | 0.00 | 74 | 1015.4 |
| 20260507195039 | 55 | 139 | 2.0 | 5.0 | 0.00 | 0.00 | 0.00 | 72 | 1015.3 |
| 20260507194553 | 55 | 0 | 0.0 | 9.0 | 0.00 | 0.00 | 0.00 | 72 | 1015.1 |
| 20260507194042 | 55 | 25 | 3.0 | 9.0 | 0.00 | 0.00 | 0.00 | 72 | 1015.1 |
| 20260507193537 | 55 | 78 | 2.0 | 10.0 | 0.00 | 0.00 | 0.00 | 73 | 1014.9 |
| 20260507193047 | 55 | 98 | 4.0 | 10.0 | 0.00 | 0.00 | 0.00 | 73 | 1014.8 |
| 20260507192536 | 55 | 94 | 4.0 | 10.0 | 0.00 | 0.00 | 0.00 | 73 | 1014.9 |
| 20260507192037 | 55 | 105 | 3.0 | 9.0 | 0.00 | 0.00 | 0.00 | 73 | 1015.0 |
| 20260507191608 | 56 | 115 | 1.0 | 9.0 | 0.00 | 0.00 | 0.00 | 73 | 1015.1 |
| 20260507191036 | 56 | 122 | 4.0 | 9.0 | 0.00 | 0.00 | 0.00 | 73 | 1015.2 |
| 20260507190538 | 56 | 89 | 3.0 | 10.0 | 0.00 | 0.00 | 0.00 | 73 | 1015.1 |
| 20260507190047 | 56 | 125 | 2.0 | 10.0 | 0.00 | 0.00 | 0.00 | 72 | 1015.1 |
| 20260507185538 | 56 | 142 | 3.0 | 7.0 | 0.00 | 0.00 | 0.00 | 71 | 1014.9 |
| 20260507185038 | 56 | 144 | 2.0 | 7.0 | 0.00 | 0.00 | 0.00 | 69 | 1015.0 |
| 20260507184557 | 56 | 150 | 1.0 | 7.0 | 0.00 | 0.00 | 0.00 | 68 | 1015.0 |
| 20260507184037 | 57 | 153 | 2.0 | 7.0 | 0.00 | 0.00 | 0.00 | 66 | 1015.1 |
| 20260507183537 | 57 | 147 | 1.0 | 7.0 | 0.00 | 0.00 | 0.00 | 65 | 1015.0 |
| 20260507183052 | 57 | 139 | 2.0 | 8.0 | 0.00 | 0.00 | 0.00 | 66 | 1015.2 |
| 20260507182538 | 57 | 174 | 3.0 | 8.0 | 0.00 | 0.00 | 0.00 | 66 | 1015.0 |
| 20260507182038 | 57 | 155 | 3.0 | 8.0 | 0.00 | 0.00 | 0.00 | 65 | 1014.9 |
| 20260507181551 | 57 | 0 | 1.0 | 8.0 | 0.00 | 0.00 | 0.00 | 66 | 1014.9 |
| 20260507181037 | 57 | 159 | 3.0 | 8.0 | 0.00 | 0.00 | 0.00 | 63 | 1014.9 |
| 20260507180537 | 57 | 155 | 1.0 | 8.0 | 0.00 | 0.00 | 0.00 | 64 | 1014.9 |
| 20260507180053 | 58 | 139 | 2.0 | 6.0 | 0.00 | 0.00 | 0.00 | 61 | 1014.9 |
| 20260507175541 | 58 | 121 | 0.0 | 6.0 | 0.00 | 0.00 | 0.00 | 63 | 1014.8 |
| 20260507175037 | 58 | 144 | 1.0 | 10.0 | 0.00 | 0.00 | 0.00 | 65 | 1014.9 |
| 20260507174547 | 58 | 148 | 1.0 | 10.0 | 0.00 | 0.00 | 0.00 | 63 | 1014.9 |
| 20260507174039 | 58 | 150 | 3.0 | 8.0 | 0.00 | 0.00 | 0.00 | 62 | 1014.8 |
| 20260507173537 | 58 | 149 | 2.0 | 8.0 | 0.00 | 0.00 | 0.00 | 64 | 1014.9 |
| 20260507173050 | 58 | 154 | 3.0 | 8.0 | 0.00 | 0.00 | 0.00 | 63 | 1014.9 |
| 20260507172537 | 58 | 137 | 2.0 | 9.0 | 0.00 | 0.00 | 0.00 | 62 | 1014.9 |
| 20260507172037 | 59 | 139 | 3.0 | 9.0 | 0.00 | 0.00 | 0.00 | 53 | 1014.9 |
| 20260507171552 | 59 | 152 | 1.0 | 9.0 | 0.00 | 0.00 | 0.00 | 54 | 1014.9 |
| 20260507171038 | 59 | 0 | 2.0 | 9.0 | 0.00 | 0.00 | 0.00 | 55 | 1014.9 |
| 20260507170538 | 59 | 136 | 2.0 | 9.0 | 0.00 | 0.00 | 0.00 | 53 | 1014.9 |
| 20260507170052 | 59 | 145 | 1.0 | 8.0 | 0.00 | 0.00 | 0.00 | 57 | 1014.9 |
| 20260507165537 | 60 | 98 | 1.0 | 8.0 | 0.00 | 0.00 | 0.00 | 62 | 1015.0 |
| 20260507165038 | 60 | 136 | 0.0 | 9.0 | 0.00 | 0.00 | 0.00 | 58 | 1015.0 |
| 20260507164604 | 60 | 0 | 2.0 | 12.0 | 0.00 | 0.00 | 0.00 | 59 | 1014.9 |
| 20260507164038 | 60 | 157 | 3.0 | 12.0 | 0.00 | 0.00 | 0.00 | 59 | 1015.0 |
| 20260507163538 | 61 | 147 | 2.0 | 9.0 | 0.00 | 0.00 | 0.00 | 58 | 1014.9 |
| 20260507163045 | 61 | 0 | 2.0 | 7.0 | 0.00 | 0.00 | 0.00 | 59 | 1014.9 |
| 20260507162536 | 61 | 171 | 3.0 | 10.0 | 0.00 | 0.00 | 0.00 | 59 | 1014.9 |
| 20260507162039 | 61 | 200 | 3.0 | 10.0 | 0.00 | 0.00 | 0.00 | 60 | 1015.0 |
| 20260507161555 | 61 | 121 | 4.0 | 9.0 | 0.00 | 0.00 | 0.00 | 60 | 1015.0 |
| 20260507161038 | 61 | 175 | 4.0 | 9.0 | 0.00 | 0.00 | 0.00 | 57 | 1015.1 |
| 20260507160535 | 60 | 146 | 3.0 | 9.0 | 0.00 | 0.00 | 0.00 | 59 | 1015.2 |
| 20260507160052 | 60 | 121 | 4.0 | 9.0 | 0.00 | 0.00 | 0.00 | 58 | 1015.2 |
| 20260507155538 | 60 | 134 | 4.0 | 9.0 | 0.00 | 0.00 | 0.00 | 60 | 1015.2 |
| 20260507155037 | 60 | 163 | 4.0 | 11.0 | 0.00 | 0.00 | 0.00 | 64 | 1015.2 |
| 20260507154549 | 60 | 138 | 5.0 | 11.0 | 0.00 | 0.00 | 0.00 | 62 | 1015.2 |
| 20260507154039 | 60 | 151 | 6.0 | 13.0 | 0.00 | 0.00 | 0.00 | 62 | 1015.3 |
| 20260507153537 | 59 | 196 | 5.0 | 13.0 | 0.00 | 0.00 | 0.00 | 65 | 1015.2 |
| 20260507153052 | 60 | 135 | 5.0 | 12.0 | 0.00 | 0.00 | 0.00 | 62 | 1015.3 |
| 20260507152537 | 60 | 144 | 5.0 | 11.0 | 0.00 | 0.00 | 0.00 | 65 | 1015.2 |
| 20260507152039 | 59 | 177 | 5.0 | 11.0 | 0.00 | 0.00 | 0.00 | 66 | 1015.3 |
| 20260507151547 | 60 | 163 | 5.0 | 12.0 | 0.00 | 0.00 | 0.00 | 68 | 1015.3 |
| 20260507151037 | 59 | 98 | 4.0 | 12.0 | 0.00 | 0.00 | 0.00 | 68 | 1015.4 |
| 20260507150537 | 60 | 128 | 6.0 | 13.0 | 0.00 | 0.00 | 0.00 | 66 | 1015.4 |
| 20260507150050 | 60 | 171 | 5.0 | 13.0 | 0.00 | 0.00 | 0.00 | 67 | 1015.3 |
| 20260507145631 | 60 | 140 | 6.0 | 14.0 | 0.00 | 0.00 | 0.00 | 68 | 1015.3 |
| 20260507145039 | 60 | 123 | 4.0 | 14.0 | 0.00 | 0.00 | 0.00 | 68 | 1015.4 |
| 20260507144543 | 60 | 132 | 5.0 | 12.0 | 0.00 | 0.00 | 0.00 | 70 | 1015.4 |
| 20260507144033 | 59 | 172 | 7.0 | 11.0 | 0.00 | 0.00 | 0.00 | 69 | 1015.5 |
| 20260507143533 | 60 | 138 | 5.0 | 10.0 | 0.00 | 0.00 | 0.00 | 67 | 1015.6 |
| 20260507143100 | 60 | 147 | 5.0 | 10.0 | 0.00 | 0.00 | 0.00 | 68 | 1015.6 |
| 20260507142536 | 60 | 168 | 4.0 | 12.0 | 0.00 | 0.00 | 0.00 | 68 | 1015.5 |
| 20260507142033 | 60 | 152 | 5.0 | 12.0 | 0.00 | 0.00 | 0.00 | 65 | 1015.6 |
| 20260507141604 | 60 | 209 | 6.0 | 12.0 | 0.00 | 0.00 | 0.00 | 68 | 1015.6 |
| 20260507141035 | 60 | 130 | 6.0 | 12.0 | 0.00 | 0.00 | 0.00 | 69 | 1015.8 |
| 20260507140537 | 60 | 140 | 5.0 | 13.0 | 0.00 | 0.00 | 0.00 | 69 | 1015.8 |
| 20260507140050 | 60 | 205 | 6.0 | 16.0 | 0.00 | 0.00 | 0.00 | 69 | 1015.7 |
| 20260507135533 | 60 | 140 | 6.0 | 16.0 | 0.00 | 0.00 | 0.00 | 68 | 1015.7 |
| 20260507135034 | 60 | 142 | 6.0 | 14.0 | 0.00 | 0.00 | 0.00 | 65 | 1015.8 |
| 20260507134546 | 60 | 157 | 6.0 | 14.0 | 0.00 | 0.00 | 0.00 | 65 | 1015.8 |
| 20260507134034 | 60 | 136 | 6.0 | 15.0 | 0.00 | 0.00 | 0.00 | 65 | 1015.8 |
| 20260507133534 | 60 | 175 | 6.0 | 15.0 | 0.00 | 0.00 | 0.00 | 63 | 1015.7 |
| 20260507133046 | 61 | 126 | 5.0 | 14.0 | 0.00 | 0.00 | 0.00 | 60 | 1015.7 |
| 20260507132533 | 61 | 128 | 6.0 | 13.0 | 0.00 | 0.00 | 0.00 | 58 | 1015.7 |
| 20260507132032 | 61 | 145 | 5.0 | 13.0 | 0.00 | 0.00 | 0.00 | 62 | 1015.7 |
| 20260507131554 | 60 | 157 | 4.0 | 12.0 | 0.00 | 0.00 | 0.00 | 61 | 1015.6 |
| 20260507131038 | 60 | 101 | 7.0 | 15.0 | 0.00 | 0.00 | 0.00 | 61 | 1015.7 |
| 20260507130536 | 60 | 135 | 5.0 | 15.0 | 0.00 | 0.00 | 0.00 | 60 | 1015.8 |
| 20260507130046 | 60 | 146 | 5.0 | 13.0 | 0.00 | 0.00 | 0.00 | 61 | 1015.8 |
| 20260507125533 | 60 | 133 | 6.0 | 13.0 | 0.00 | 0.00 | 0.00 | 62 | 1015.8 |
| 20260507125038 | 60 | 176 | 6.0 | 13.0 | 0.00 | 0.00 | 0.00 | 60 | 1015.8 |
| 20260507124543 | 60 | 158 | 6.0 | 13.0 | 0.00 | 0.00 | 0.00 | 62 | 1015.8 |
| 20260507124035 | 60 | 115 | 5.0 | 13.0 | 0.00 | 0.00 | 0.00 | 61 | 1015.8 |
| 20260507123534 | 60 | 146 | 7.0 | 13.0 | 0.00 | 0.00 | 0.00 | 62 | 1015.7 |
| 20260507123103 | 61 | 230 | 6.0 | 13.0 | 0.00 | 0.00 | 0.00 | 59 | 1015.9 |
| 20260507122535 | 61 | 168 | 4.0 | 16.0 | 0.00 | 0.00 | 0.00 | 59 | 1015.9 |
| 20260507122033 | 61 | 146 | 7.0 | 16.0 | 0.00 | 0.00 | 0.00 | 59 | 1016.0 |
| 20260507121546 | 62 | 130 | 6.0 | 14.0 | 0.00 | 0.00 | 0.00 | 59 | 1015.9 |
| 20260507121033 | 61 | 169 | 4.0 | 14.0 | 0.00 | 0.00 | 0.00 | 57 | 1016.0 |
| 20260507120532 | 61 | 145 | 6.0 | 14.0 | 0.00 | 0.00 | 0.00 | 59 | 1016.0 |
| 20260507120047 | 62 | 148 | 5.0 | 13.0 | 0.00 | 0.00 | 0.00 | 59 | 1016.1 |
| 20260507115535 | 62 | 167 | 4.0 | 13.0 | 0.00 | 0.00 | 0.00 | 59 | 1016.0 |
| 20260507115037 | 61 | 172 | 5.0 | 14.0 | 0.00 | 0.00 | 0.00 | 62 | 1016.1 |
| 20260507114553 | 61 | 154 | 6.0 | 14.0 | 0.00 | 0.00 | 0.00 | 60 | 1016.1 |
| 20260507114037 | 61 | 161 | 5.0 | 11.0 | 0.00 | 0.00 | 0.00 | 61 | 1016.1 |
| 20260507113537 | 61 | 205 | 6.0 | 12.0 | 0.00 | 0.00 | 0.00 | 61 | 1016.1 |
| 20260507113046 | 61 | 159 | 4.0 | 13.0 | 0.00 | 0.00 | 0.00 | 62 | 1016.0 |
| 20260507112537 | 61 | 112 | 5.0 | 13.0 | 0.00 | 0.00 | 0.00 | 62 | 1016.1 |
| 20260507112037 | 61 | 130 | 6.0 | 13.0 | 0.00 | 0.00 | 0.00 | 64 | 1016.1 |
| 20260507111545 | 61 | 189 | 6.0 | 11.0 | 0.00 | 0.00 | 0.00 | 61 | 1016.1 |
| 20260507111038 | 61 | 163 | 3.0 | 10.0 | 0.00 | 0.00 | 0.00 | 64 | 1016.1 |
| 20260507110537 | 60 | 190 | 5.0 | 13.0 | 0.00 | 0.00 | 0.00 | 66 | 1016.1 |
| 20260507110050 | 60 | 91 | 5.0 | 14.0 | 0.00 | 0.00 | 0.00 | 66 | 1016.1 |
| 20260507105534 | 60 | 149 | 6.0 | 14.0 | 0.00 | 0.00 | 0.00 | 66 | 1016.2 |
| 20260507105035 | 60 | 132 | 6.0 | 13.0 | 0.00 | 0.00 | 0.00 | 65 | 1016.2 |
| 20260507104549 | 60 | 160 | 4.0 | 12.0 | 0.00 | 0.00 | 0.00 | 66 | 1016.3 |
| 20260507104037 | 59 | 144 | 5.0 | 15.0 | 0.00 | 0.00 | 0.00 | 67 | 1016.2 |
| 20260507103534 | 59 | 107 | 6.0 | 15.0 | 0.00 | 0.00 | 0.00 | 68 | 1016.2 |
| 20260507103048 | 59 | 148 | 6.0 | 13.0 | 0.00 | 0.00 | 0.00 | 67 | 1016.2 |
| 20260507102538 | 59 | 126 | 4.0 | 11.0 | 0.00 | 0.00 | 0.00 | 66 | 1016.1 |
| 20260507102035 | 60 | 166 | 5.0 | 11.0 | 0.00 | 0.00 | 0.00 | 66 | 1016.1 |
| 20260507101546 | 59 | 120 | 5.0 | 13.0 | 0.00 | 0.00 | 0.00 | 65 | 1016.1 |
| 20260507101034 | 59 | 207 | 6.0 | 13.0 | 0.00 | 0.00 | 0.00 | 66 | 1016.2 |
| 20260507100537 | 59 | 170 | 4.0 | 12.0 | 0.00 | 0.00 | 0.00 | 66 | 1016.2 |
| 20260507100052 | 60 | 123 | 6.0 | 12.0 | 0.00 | 0.00 | 0.00 | 64 | 1016.2 |
| 20260507095537 | 60 | 192 | 5.0 | 13.0 | 0.00 | 0.00 | 0.00 | 65 | 1016.3 |
| 20260507095041 | 60 | 192 | 5.0 | 13.0 | 0.00 | 0.00 | 0.00 | 64 | 1016.2 |
| 20260507094549 | 60 | 173 | 4.0 | 10.0 | 0.00 | 0.00 | 0.00 | 64 | 1016.2 |
| 20260507094037 | 59 | 153 | 3.0 | 9.0 | 0.00 | 0.00 | 0.00 | 65 | 1016.1 |
| 20260507093537 | 59 | 210 | 4.0 | 10.0 | 0.00 | 0.00 | 0.00 | 65 | 1016.1 |
| 20260507093048 | 59 | 128 | 3.0 | 10.0 | 0.00 | 0.00 | 0.00 | 67 | 1016.1 |
| 20260507092537 | 58 | 186 | 5.0 | 10.0 | 0.00 | 0.00 | 0.00 | 67 | 1016.0 |
| 20260507092036 | 58 | 164 | 4.0 | 10.0 | 0.00 | 0.00 | 0.00 | 67 | 1016.2 |
| 20260507091547 | 58 | 184 | 3.0 | 10.0 | 0.00 | 0.00 | 0.00 | 68 | 1016.1 |
| 20260507091037 | 57 | 117 | 4.0 | 10.0 | 0.00 | 0.00 | 0.00 | 68 | 1016.2 |
| 20260507090534 | 58 | 127 | 3.0 | 9.0 | 0.00 | 0.00 | 0.00 | 69 | 1016.2 |
| 20260507090057 | 57 | 167 | 4.0 | 13.0 | 0.00 | 0.00 | 0.00 | 69 | 1016.2 |
| 20260507085534 | 57 | 183 | 4.0 | 13.0 | 0.00 | 0.00 | 0.00 | 69 | 1016.3 |
| 20260507085045 | 57 | 177 | 3.0 | 10.0 | 0.00 | 0.00 | 0.00 | 71 | 1016.2 |
| 20260507084553 | 56 | 150 | 2.0 | 11.0 | 0.00 | 0.00 | 0.00 | 73 | 1016.1 |
| 20260507084037 | 56 | 142 | 3.0 | 11.0 | 0.00 | 0.00 | 0.00 | 75 | 1016.1 |
| 20260507083537 | 56 | 164 | 4.0 | 11.0 | 0.00 | 0.00 | 0.00 | 75 | 1016.2 |
| 20260507083052 | 56 | 115 | 4.0 | 11.0 | 0.00 | 0.00 | 0.00 | 74 | 1016.1 |
| 20260507082538 | 56 | 134 | 3.0 | 9.0 | 0.00 | 0.00 | 0.00 | 74 | 1016.1 |
| 20260507082037 | 56 | 140 | 4.0 | 9.0 | 0.00 | 0.00 | 0.00 | 74 | 1016.0 |
| 20260507081553 | 56 | 103 | 5.0 | 9.0 | 0.00 | 0.00 | 0.00 | 74 | 1016.0 |
| 20260507081037 | 56 | 151 | 2.0 | 8.0 | 0.00 | 0.00 | 0.00 | 75 | 1015.9 |
| 20260507080537 | 55 | 135 | 3.0 | 9.0 | 0.00 | 0.00 | 0.00 | 74 | 1015.9 |
| 20260507080109 | 55 | 153 | 4.0 | 9.0 | 0.00 | 0.00 | 0.00 | 74 | 1016.0 |
| 20260507075537 | 56 | 108 | 3.0 | 7.0 | 0.00 | 0.00 | 0.00 | 74 | 1016.0 |
| 20260507075035 | 55 | 121 | 3.0 | 7.0 | 0.00 | 0.00 | 0.00 | 75 | 1016.0 |
| 20260507074546 | 54 | 134 | 3.0 | 7.0 | 0.00 | 0.00 | 0.00 | 75 | 1016.0 |
| 20260507074035 | 54 | 162 | 2.0 | 7.0 | 0.00 | 0.00 | 0.00 | 75 | 1016.0 |
| 20260507073535 | 53 | 107 | 2.0 | 7.0 | 0.00 | 0.00 | 0.00 | 75 | 1016.0 |
| 20260507073047 | 53 | 149 | 2.0 | 4.0 | 0.00 | 0.00 | 0.00 | 74 | 1016.1 |
| 20260507072535 | 52 | 98 | 0.0 | 4.0 | 0.00 | 0.00 | 0.00 | 75 | 1016.0 |
| 20260507072035 | 52 | 98 | 1.0 | 4.0 | 0.00 | 0.00 | 0.00 | 74 | 1016.0 |
| 20260507071546 | 51 | 129 | 1.0 | 3.0 | 0.00 | 0.00 | 0.00 | 74 | 1015.9 |
| 20260507071035 | 51 | 129 | 1.0 | 3.0 | 0.00 | 0.00 | 0.00 | 75 | 1016.0 |
| 20260507070535 | 51 | 0 | 1.0 | 3.0 | 0.00 | 0.00 | 0.00 | 75 | 1015.9 |
| 20260507070049 | 51 | 0 | 1.0 | 3.0 | 0.00 | 0.00 | 0.00 | 75 | 1015.9 |
| 20260507065537 | 50 | 129 | 1.0 | 3.0 | 0.00 | 0.00 | 0.00 | 75 | 1015.9 |
| 20260507065036 | 50 | 73 | 1.0 | 3.0 | 0.00 | 0.00 | 0.00 | 76 | 1015.9 |
| 20260507064621 | 50 | 0 | 0.0 | 3.0 | 0.00 | 0.00 | 0.00 | 76 | 1015.9 |
| 20260507064037 | 49 | 0 | 0.0 | 3.0 | 0.00 | 0.00 | 0.00 | 77 | 1015.9 |
| 20260507063536 | 49 | 73 | 0.0 | 3.0 | 0.00 | 0.00 | 0.00 | 78 | 1015.9 |
| 20260507063051 | 48 | 0 | 1.0 | 3.0 | 0.00 | 0.00 | 0.00 | 78 | 1015.8 |
| 20260507062537 | 48 | 24 | 0.0 | 2.0 | 0.00 | 0.00 | 0.00 | 78 | 1015.8 |
| 20260507062037 | 48 | 24 | 0.0 | 3.0 | 0.00 | 0.00 | 0.00 | 78 | 1015.9 |
| 20260507061548 | 48 | 24 | 0.0 | 3.0 | 0.00 | 0.00 | 0.00 | 78 | 1015.8 |
| 20260507061037 | 47 | 48 | 1.0 | 3.0 | 0.00 | 0.00 | 0.00 | 79 | 1015.7 |
| 20260507060537 | 47 | 50 | 0.0 | 3.0 | 0.00 | 0.00 | 0.00 | 79 | 1015.8 |
| 20260507060109 | 47 | 57 | 0.0 | 4.0 | 0.00 | 0.00 | 0.00 | 79 | 1015.7 |
| 20260507055537 | 47 | 0 | 0.0 | 5.0 | 0.00 | 0.00 | 0.00 | 79 | 1015.6 |
| 20260507055036 | 47 | 71 | 2.0 | 5.0 | 0.00 | 0.00 | 0.00 | 79 | 1015.6 |
| 20260507054552 | 46 | 24 | 1.0 | 5.0 | 0.00 | 0.00 | 0.00 | 79 | 1015.5 |
| 20260507054038 | 46 | 71 | 2.0 | 5.0 | 0.00 | 0.00 | 0.00 | 79 | 1015.5 |
| 20260507053537 | 46 | 48 | 1.0 | 5.0 | 0.00 | 0.00 | 0.00 | 79 | 1015.5 |
| 20260507053048 | 46 | 47 | 2.0 | 5.0 | 0.00 | 0.00 | 0.00 | 79 | 1015.5 |
| 20260507052537 | 46 | 38 | 2.0 | 5.0 | 0.00 | 0.00 | 0.00 | 78 | 1015.5 |
| 20260507052037 | 46 | 43 | 2.0 | 4.0 | 0.00 | 0.00 | 0.00 | 78 | 1015.5 |
| 20260507051603 | 46 | 34 | 1.0 | 5.0 | 0.00 | 0.00 | 0.00 | 78 | 1015.5 |
| 20260507051036 | 46 | 32 | 1.0 | 5.0 | 0.00 | 0.00 | 0.00 | 78 | 1015.6 |
| 20260507050538 | 46 | 31 | 2.0 | 5.0 | 0.00 | 0.00 | 0.00 | 78 | 1015.4 |
| 20260507050050 | 46 | 33 | 1.0 | 5.0 | 0.00 | 0.00 | 0.00 | 78 | 1015.4 |
| 20260507045536 | 46 | 32 | 2.0 | 5.0 | 0.00 | 0.03 | 0.00 | 78 | 1015.3 |
| 20260507045036 | 46 | 41 | 1.0 | 4.0 | 0.00 | 0.03 | 0.00 | 78 | 1015.4 |
| 20260507044550 | 46 | 34 | 1.0 | 4.0 | 0.00 | 0.03 | 0.00 | 78 | 1015.4 |
| 20260507044040 | 46 | 51 | 1.0 | 4.0 | 0.00 | 0.03 | 0.00 | 78 | 1015.4 |
| 20260507043537 | 46 | 335 | 1.0 | 4.0 | 0.00 | 0.03 | 0.00 | 78 | 1015.4 |
| 20260507043049 | 46 | 0 | 1.0 | 5.0 | 0.00 | 0.03 | 0.00 | 77 | 1015.4 |
| 20260507042538 | 46 | 0 | 1.0 | 5.0 | 0.00 | 0.03 | 0.00 | 77 | 1015.3 |
| 20260507042037 | 46 | 63 | 1.0 | 6.0 | 0.00 | 0.03 | 0.00 | 77 | 1015.3 |
| 20260507041553 | 46 | 51 | 1.0 | 6.0 | 0.00 | 0.03 | 0.00 | 77 | 1015.2 |
| 20260507041038 | 46 | 38 | 1.0 | 5.0 | 0.00 | 0.03 | 0.00 | 77 | 1015.2 |
| 20260507040535 | 46 | 71 | 2.0 | 8.0 | 0.00 | 0.03 | 0.00 | 77 | 1015.2 |
| 20260507040047 | 46 | 63 | 2.0 | 8.0 | 0.00 | 0.03 | 0.00 | 77 | 1015.2 |
| 20260507035537 | 46 | 43 | 3.0 | 8.0 | 0.00 | 0.03 | 0.00 | 77 | 1015.2 |
| 20260507035034 | 46 | 55 | 2.0 | 6.0 | 0.00 | 0.03 | 0.00 | 76 | 1015.2 |
| 20260507034547 | 46 | 32 | 2.0 | 5.0 | 0.00 | 0.03 | 0.00 | 76 | 1015.2 |
| 20260507034037 | 46 | 51 | 2.0 | 6.0 | 0.00 | 0.03 | 0.00 | 76 | 1015.2 |
| 20260507033537 | 46 | 37 | 2.0 | 6.0 | 0.00 | 0.03 | 0.00 | 76 | 1015.3 |
| 20260507033048 | 46 | 35 | 2.0 | 6.0 | 0.00 | 0.03 | 0.00 | 76 | 1015.1 |
| 20260507032537 | 46 | 53 | 3.0 | 7.0 | 0.00 | 0.03 | 0.00 | 76 | 1015.2 |
| 20260507032039 | 46 | 57 | 2.0 | 8.0 | 0.00 | 0.03 | 0.00 | 75 | 1015.2 |
| 20260507031547 | 46 | 31 | 3.0 | 8.0 | 0.00 | 0.03 | 0.00 | 75 | 1015.2 |
| 20260507031037 | 46 | 5 | 2.0 | 5.0 | 0.00 | 0.03 | 0.00 | 75 | 1015.1 |
| 20260507030537 | 46 | 32 | 2.0 | 6.0 | 0.00 | 0.03 | 0.00 | 75 | 1015.1 |
| 20260507030048 | 46 | 17 | 2.0 | 7.0 | 0.00 | 0.03 | 0.00 | 75 | 1015.1 |
| 20260507025537 | 46 | 24 | 3.0 | 7.0 | 0.00 | 0.03 | 0.00 | 75 | 1015.0 |
| 20260507025039 | 46 | 26 | 2.0 | 7.0 | 0.00 | 0.03 | 0.00 | 75 | 1015.0 |
| 20260507024546 | 46 | 42 | 2.0 | 6.0 | 0.00 | 0.03 | 0.00 | 75 | 1015.0 |
| 20260507024033 | 46 | 36 | 3.0 | 8.0 | 0.00 | 0.03 | 0.00 | 74 | 1015.0 |
| 20260507023536 | 46 | 40 | 3.0 | 8.0 | 0.00 | 0.03 | 0.00 | 74 | 1015.0 |
| 20260507023045 | 46 | 44 | 3.0 | 8.0 | 0.00 | 0.03 | 0.00 | 74 | 1015.0 |
| 20260507022537 | 46 | 18 | 3.0 | 8.0 | 0.00 | 0.03 | 0.00 | 74 | 1014.9 |
| 20260507022037 | 46 | 37 | 3.0 | 8.0 | 0.00 | 0.03 | 0.00 | 74 | 1014.9 |
| 20260507021545 | 46 | 15 | 3.0 | 8.0 | 0.00 | 0.03 | 0.00 | 74 | 1015.0 |
| 20260507021037 | 47 | 40 | 3.0 | 8.0 | 0.00 | 0.03 | 0.00 | 73 | 1014.9 |
| 20260507020537 | 47 | 19 | 3.0 | 9.0 | 0.00 | 0.03 | 0.00 | 73 | 1014.9 |
| 20260507015540 | 47 | 55 | 3.0 | 8.0 | 0.00 | 0.03 | 0.00 | 73 | 1015.0 |
| 20260507015037 | 47 | 53 | 4.0 | 9.0 | 0.00 | 0.03 | 0.00 | 73 | 1014.9 |
| 20260507014548 | 47 | 38 | 2.0 | 9.0 | 0.00 | 0.03 | 0.00 | 73 | 1014.9 |
| 20260507014037 | 47 | 36 | 3.0 | 9.0 | 0.00 | 0.03 | 0.00 | 73 | 1014.9 |
| 20260507013539 | 47 | 34 | 2.0 | 9.0 | 0.00 | 0.03 | 0.00 | 73 | 1014.8 |
| 20260507013047 | 47 | 57 | 4.0 | 9.0 | 0.00 | 0.03 | 0.00 | 73 | 1014.8 |
| 20260507012537 | 47 | 25 | 2.0 | 7.0 | 0.00 | 0.03 | 0.00 | 73 | 1014.8 |
| 20260507012037 | 48 | 46 | 2.0 | 7.0 | 0.00 | 0.03 | 0.00 | 73 | 1014.7 |
| 20260507011546 | 48 | 32 | 2.0 | 7.0 | 0.00 | 0.03 | 0.00 | 73 | 1014.9 |
| 20260507011037 | 48 | 31 | 2.0 | 6.0 | 0.00 | 0.03 | 0.00 | 73 | 1014.8 |
| 20260507010537 | 48 | 41 | 2.0 | 6.0 | 0.00 | 0.03 | 0.00 | 73 | 1014.8 |
| 20260507010100 | 48 | 58 | 3.0 | 6.0 | 0.00 | 0.03 | 0.00 | 73 | 1015.0 |
| 20260507005537 | 48 | 37 | 2.0 | 6.0 | 0.00 | 0.03 | 0.00 | 73 | 1014.9 |
| 20260507005037 | 48 | 24 | 2.0 | 6.0 | 0.00 | 0.03 | 0.00 | 73 | 1014.9 |
| 20260507004545 | 48 | 21 | 2.0 | 5.0 | 0.00 | 0.03 | 0.00 | 72 | 1014.8 |